HAZ3727 ZGSZ-ZJSY

Flight info

Callsign HAZ3727
Flight time N/A
Altitude 36100
Route TOMUD1 TOMUD R200 BIGRO G221 UPRIS UPRIS3D
Aircraft B772/H-SDE2E3FGHIJ5LORVWXY/LB1D1

Departure

Time 2026-04-24 17:10
Airport Shenzhen Bao'an International Airport (ZGSZ)

Arrival

Time N/A
Airport Sanya Phoenix International Airport (ZJSY)
Time Latitude Longitude Altitude Speed Heading
2026-04-24 16:34 22.63059 113.80158 27 ft 2 kts 84°
2026-04-24 16:34 22.63059 113.80142 27 ft 2 kts 101°
2026-04-24 16:35 22.63064 113.80126 27 ft 2 kts 119°
2026-04-24 16:35 22.63073 113.80114 27 ft 2 kts 136°
2026-04-24 16:35 22.63083 113.80105 27 ft 0 kts 152°
2026-04-24 16:35 22.63087 113.80102 27 ft 0 kts 153°
2026-04-24 16:37 22.63084 113.80104 27 ft 2 kts 153°
2026-04-24 16:37 22.63051 113.80123 27 ft 3 kts 140°
2026-04-24 16:38 22.63044 113.80148 27 ft 3 kts 87°
2026-04-24 16:38 22.63056 113.80170 27 ft 4 kts 41°
2026-04-24 16:38 22.63087 113.80202 27 ft 5 kts 45°
2026-04-24 16:38 22.63103 113.80218 27 ft 0 kts 44°
2026-04-24 16:49 22.63095 113.80210 27 ft 2 kts 44°
2026-04-24 16:49 22.63084 113.80199 27 ft 2 kts 44°
2026-04-24 16:49 22.63073 113.80187 27 ft 2 kts 51°
2026-04-24 16:49 22.63067 113.80176 27 ft 2 kts 68°
2026-04-24 16:50 22.63064 113.80166 27 ft 2 kts 78°
2026-04-24 16:50 22.63062 113.80145 27 ft 2 kts 98°
2026-04-24 16:50 22.63066 113.80129 27 ft 2 kts 114°
2026-04-24 16:50 22.63074 113.80115 27 ft 2 kts 130°
2026-04-24 16:51 22.63084 113.80105 27 ft 2 kts 146°
2026-04-24 16:51 22.63091 113.80100 27 ft 1 kts 154°
2026-04-24 16:51 22.63093 113.80099 27 ft 0 kts 153°
2026-04-24 16:55 22.63083 113.80104 27 ft 7 kts 153°
2026-04-24 16:55 22.63028 113.80135 27 ft 10 kts 153°
2026-04-24 16:55 22.62954 113.80175 27 ft 13 kts 153°
2026-04-24 16:56 22.62865 113.80225 27 ft 15 kts 153°
2026-04-24 16:56 22.62762 113.80282 27 ft 17 kts 153°
2026-04-24 16:56 22.62648 113.80344 27 ft 19 kts 153°
2026-04-24 16:56 22.62590 113.80376 27 ft 0 kts 153°
2026-04-24 16:57 22.62577 113.80383 27 ft 3 kts 153°
2026-04-24 16:57 22.62544 113.80394 27 ft 6 kts 182°
2026-04-24 16:57 22.62500 113.80369 27 ft 8 kts 231°
2026-04-24 16:57 22.62468 113.80303 27 ft 11 kts 245°
2026-04-24 16:58 22.62430 113.80218 27 ft 13 kts 246°
2026-04-24 16:58 22.62443 113.80128 27 ft 13 kts 329°
2026-04-24 16:58 22.62525 113.80086 27 ft 3 kts 333°
2026-04-24 16:58 22.62536 113.80080 27 ft 0 kts 333°
2026-04-24 17:09 22.63105 113.79768 27 ft 124 kts 336°
2026-04-24 17:09 22.65272 113.78500 553 ft 205 kts 336°
2026-04-24 17:10 22.66619 113.78131 1586 ft 198 kts 348°
2026-04-24 17:10 22.69577 113.74642 3180 ft 239 kts 314°
2026-04-24 17:11 22.73173 113.70930 5464 ft 242 kts 314°
2026-04-24 17:12 22.76412 113.63273 8870 ft 252 kts 248°